Weather History for Jacksonville Craig, FL

Change the Weather History Date:

Sunday, March 24, 2013

  Actual Average Record
Temperature  
Mean Temperature 73 °F -  
Max Temperature 86 °F 71 °F 87 °F (2011)
Min Temperature 62 °F 52 °F 43 °F (1998)
Cooling Degree Days 8    
Growing Degree Days 23 (Base 50)    
Moisture  
Dew Point 64 °F    
Average Humidity 79    
Maximum Humidity 94    
Minimum Humidity 44    
Precipitation  
Precipitation 0.21 in - - ()
Sea Level Pressure  
Sea Level Pressure 29.64 in    
Wind  
Wind Speed 11 mph (SW)    
Max Wind Speed 18 mph    
Max Gust Speed 31 mph    
Visibility 9 miles    
Events Rain , Thunderstorm    
Averages and records for this station are not official NWS values.
T = Trace of Precipitation, MM = Missing Value Source: NWS Daily Summary

Daily Weather History Graph

Daily Weather History Graph

Search for Another Location

Airport:

Trip Planner

Search our weather history database for the weather conditions in past years. The results will help you decide how hot, cold, wet, or windy it might be!

Date:

Astronomy

Mar. 24, 2013 Rise Set
Actual Time 7:24 AM EDT 7:40 PM EDT
Civil Twilight 7:00 AM EDT 8:04 PM EDT
Nautical Twilight 6:32 AM EDT 8:32 PM EDT
Astronomical Twilight 6:04 AM EDT 9:00 PM EDT
Moon 5:15 PM EDT (3/24) 5:23 AM EDT (3/24)
Length of Visible Light 13h 03m
Length of Day
12h 15m
Waxing Gibbous, 91% of the Moon is Illuminated
Mar 24
Waxing Gibbous
Mar 27
Full
Apr 3
Last Quarter
Apr 10
New
Apr 18
First Quarter

Hourly Weather History & Observations

Time (EDT) Temp. Heat Index Dew Point Humidity Pressure Visibility Wind Dir Wind Speed Gust Speed Precip Events Conditions
12:53 AM 63.0 °F - 60.1 °F 90% 29.80 in 10.0 mi South 4.6 mph - 0.00 in Rain Rain
1:00 AM 62.6 °F - 60.8 °F 94% 29.79 in 10.0 mi SE 6.9 mph - 0.00 in Rain Rain
1:07 AM 62.6 °F - 60.8 °F 94% 29.79 in 10.0 mi SSE 6.9 mph - 0.00 in Rain Rain
1:53 AM 64.0 °F - 62.1 °F 93% 29.77 in 10.0 mi SE 12.7 mph - 0.00 in Rain Rain
2:02 AM 64.4 °F - 62.6 °F 94% 29.77 in 10.0 mi SSW 6.9 mph - 0.00 in Rain Rain
2:48 AM 64.4 °F - 62.6 °F 94% 29.75 in 10.0 mi South 8.1 mph - 0.00 in Rain Rain
2:53 AM 64.0 °F - 62.1 °F 93% 29.75 in 10.0 mi South 9.2 mph - 0.00 in Rain Rain
3:53 AM 64.0 °F - 61.0 °F 90% 29.72 in 10.0 mi South 8.1 mph - 0.00 in Rain Rain
4:53 AM 64.9 °F - 62.1 °F 90% 29.68 in 10.0 mi South 8.1 mph - 0.00 in Rain Rain
5:53 AM 64.9 °F - 63.0 °F 93% 29.65 in 10.0 mi South 8.1 mph - 0.00 in Rain Rain
6:19 AM 66.2 °F - 62.6 °F 88% 29.65 in 10.0 mi South 10.4 mph - 0.00 in   Overcast
6:53 AM 66.9 °F - 64.0 °F 90% 29.65 in 10.0 mi South 10.4 mph - 0.00 in   Overcast
7:53 AM 68.0 °F - 64.9 °F 90% 29.64 in 9.0 mi SSW 11.5 mph - 0.00 in   Overcast
8:53 AM 70.0 °F - 66.9 °F 90% 29.62 in 8.0 mi SSW 17.3 mph 24.2 mph N/A   Overcast
9:53 AM 73.0 °F - 68.0 °F 84% 29.60 in 7.0 mi SW 16.1 mph 24.2 mph N/A   Mostly Cloudy
10:15 AM 73.4 °F - 68.0 °F 83% 29.63 in 7.0 mi SW 17.3 mph 25.3 mph 0.00 in Rain Light Rain
10:29 AM 73.4 °F - 68.0 °F 83% 29.63 in 8.0 mi WSW 13.8 mph 21.9 mph 0.00 in Rain , Thunderstorm Thunderstorms and Rain
10:53 AM 73.0 °F - 68.0 °F 84% 29.64 in 5.0 mi West 9.2 mph - 0.02 in Rain , Thunderstorm Thunderstorms and Rain
11:33 AM 71.6 °F - 66.2 °F 83% 29.62 in 5.0 mi SW 15.0 mph 21.9 mph 0.05 in Rain , Thunderstorm Thunderstorms and Rain
11:53 AM 72.0 °F - 66.0 °F 81% 29.63 in 5.0 mi SSW 16.1 mph - 0.09 in Rain , Thunderstorm Thunderstorms and Rain
12:02 PM 71.6 °F - 66.2 °F 83% 29.61 in 1.8 mi SSW 16.1 mph - 0.07 in Rain , Thunderstorm Thunderstorms and Rain
12:06 PM 71.6 °F - 66.2 °F 83% 29.60 in 3.0 mi WSW 11.5 mph 20.7 mph 0.08 in Rain , Thunderstorm Thunderstorms and Rain
12:45 PM 73.4 °F - 69.8 °F 88% 29.62 in 10.0 mi WSW 11.5 mph - 0.10 in   Mostly Cloudy
12:53 PM 75.0 °F - 70.0 °F 84% 29.62 in 10.0 mi WSW 12.7 mph - 0.10 in   Mostly Cloudy
1:35 PM 75.2 °F - 69.8 °F 83% 29.60 in 10.0 mi WSW 15.0 mph 24.2 mph 0.00 in   Overcast
1:53 PM 78.1 °F - 69.1 °F 74% 29.59 in 10.0 mi WSW 18.4 mph 26.5 mph 0.00 in   Mostly Cloudy
2:07 PM 78.8 °F - 69.8 °F 74% 29.58 in 10.0 mi WSW 17.3 mph 31.1 mph N/A   Scattered Clouds
2:26 PM 80.6 °F 83.2 °F 68.0 °F 65% 29.56 in 10.0 mi WSW 16.1 mph 26.5 mph N/A   Mostly Cloudy
2:53 PM 81.0 °F 83.8 °F 68.0 °F 65% 29.55 in 10.0 mi West 15.0 mph 27.6 mph N/A   Scattered Clouds
3:53 PM 84.9 °F 87.6 °F 66.9 °F 55% 29.54 in 10.0 mi WSW 15.0 mph 21.9 mph N/A   Clear
4:53 PM 84.9 °F 85.9 °F 63.0 °F 48% 29.54 in 10.0 mi West 16.1 mph 23.0 mph N/A   Clear
5:53 PM 84.9 °F 85.0 °F 61.0 °F 44% 29.54 in 10.0 mi WSW 15.0 mph 21.9 mph N/A   Clear
6:53 PM 82.9 °F 82.8 °F 59.0 °F 44% 29.55 in 10.0 mi WSW 11.5 mph - N/A   Clear
7:53 PM 81.0 °F 81.6 °F 60.1 °F 49% 29.58 in 10.0 mi WSW 13.8 mph 23.0 mph N/A   Clear
8:53 PM 75.9 °F - 62.1 °F 62% 29.60 in 10.0 mi SW 13.8 mph - N/A   Clear
9:53 PM 73.9 °F - 61.0 °F 64% 29.61 in 10.0 mi SW 11.5 mph - N/A   Clear
10:53 PM 72.0 °F - 61.0 °F 68% 29.62 in 10.0 mi SW 15.0 mph - N/A   Clear
11:53 PM 70.0 °F - 60.1 °F 71% 29.62 in 10.0 mi SW 16.1 mph 23.0 mph N/A   Clear